owner,sensor,date,latitude,longitude,vertical_datum,mass_concentration_of_oxygen_in_sea_water,qcFlag 
DISL,ioos:station:DISL:KATA:1,2013-07-01T00:00:00Z,30.2583,-88.2131,4.112,5.93,1111122 
DISL,ioos:station:DISL:KATA:1,2013-07-01T00:30:00Z,30.2583,-88.2131,4.112,5.93,1111122 
DISL,ioos:station:DISL:KATA:1,2013-07-01T01:00:00Z,30.2583,-88.2131,4.112,5.93,1111122 
DISL,ioos:station:DISL:KATA:1,2013-07-01T01:30:00Z,30.2583,-88.2131,4.112,5.93,1111122 
DISL,ioos:station:DISL:KATA:1,2013-07-01T02:00:00Z,30.2583,-88.2131,4.112,5.93,1111122 
DISL,ioos:station:DISL:KATA:1,2013-07-01T02:30:00Z,30.2583,-88.2131,4.112,5.93,1111122 
DISL,ioos:station:DISL:KATA:1,2013-07-01T03:00:00Z,30.2583,-88.2131,4.112,5.93,1111122 
DISL,ioos:station:DISL:KATA:1,2013-07-01T03:30:00Z,30.2583,-88.2131,4.112,5.93,1111122 
DISL,ioos:station:DISL:KATA:1,2013-07-01T04:00:00Z,30.2583,-88.2131,4.112,5.93,1111122 
DISL,ioos:station:DISL:KATA:1,2013-07-01T04:30:00Z,30.2583,-88.2131,4.112,5.93,1111122 
DISL,ioos:station:DISL:KATA:1,2013-07-01T05:00:00Z,30.2583,-88.2131,4.112,5.93,1111122 
DISL,ioos:station:DISL:KATA:1,2013-07-01T05:30:00Z,30.2583,-88.2131,4.112,5.93,1111122 
DISL,ioos:station:DISL:KATA:1,2013-07-01T06:00:00Z,30.2583,-88.2131,4.112,5.93,1111122 
DISL,ioos:station:DISL:KATA:1,2013-07-01T06:30:00Z,30.2583,-88.2131,4.112,5.93,1111122 
DISL,ioos:station:DISL:KATA:1,2013-07-01T07:00:00Z,30.2583,-88.2131,4.112,5.93,1111122 
DISL,ioos:station:DISL:KATA:1,2013-07-01T07:30:00Z,30.2583,-88.2131,4.112,5.93,1111122 
DISL,ioos:station:DISL:KATA:1,2013-07-01T08:00:00Z,30.2583,-88.2131,4.112,5.93,1111122 
DISL,ioos:station:DISL:KATA:1,2013-07-01T08:30:00Z,30.2583,-88.2131,4.112,5.93,1111122 
DISL,ioos:station:DISL:KATA:1,2013-07-01T09:00:00Z,30.2583,-88.2131,4.112,5.93,1111122 
DISL,ioos:station:DISL:KATA:1,2013-07-01T09:30:00Z,30.2583,-88.2131,4.112,5.93,1111122 
DISL,ioos:station:DISL:KATA:1,2013-07-01T10:00:00Z,30.2583,-88.2131,4.112,5.93,1111122 
DISL,ioos:station:DISL:KATA:1,2013-07-01T10:30:00Z,30.2583,-88.2131,4.112,5.93,1111122 
DISL,ioos:station:DISL:KATA:1,2013-07-01T11:00:00Z,30.2583,-88.2131,4.112,5.93,1111122 
DISL,ioos:station:DISL:KATA:1,2013-07-01T11:30:00Z,30.2583,-88.2131,4.112,5.93,1111122 
DISL,ioos:station:DISL:KATA:1,2013-07-01T12:00:00Z,30.2583,-88.2131,4.112,5.93,1111122 
DISL,ioos:station:DISL:KATA:1,2013-07-01T12:30:00Z,30.2583,-88.2131,4.112,5.93,1111122 
DISL,ioos:station:DISL:KATA:1,2013-07-01T13:00:00Z,30.2583,-88.2131,4.112,5.93,1111122 
DISL,ioos:station:DISL:KATA:1,2013-07-01T13:30:00Z,30.2583,-88.2131,4.112,5.93,1111122 
DISL,ioos:station:DISL:KATA:1,2013-07-01T14:00:00Z,30.2583,-88.2131,4.112,5.93,1111122 
DISL,ioos:station:DISL:KATA:1,2013-07-01T14:30:00Z,30.2583,-88.2131,4.112,5.93,1111122 
DISL,ioos:station:DISL:KATA:1,2013-07-01T15:00:00Z,30.2583,-88.2131,4.112,5.93,1111122 
DISL,ioos:station:DISL:KATA:1,2013-07-01T15:30:00Z,30.2583,-88.2131,4.112,5.93,1111122 
DISL,ioos:station:DISL:KATA:1,2013-07-01T16:00:00Z,30.2583,-88.2131,4.112,5.93,1111122 
DISL,ioos:station:DISL:KATA:1,2013-07-01T16:30:00Z,30.2583,-88.2131,4.112,5.93,1111122 
DISL,ioos:station:DISL:KATA:1,2013-07-01T17:00:00Z,30.2583,-88.2131,4.112,5.93,1111122 
DISL,ioos:station:DISL:KATA:1,2013-07-01T17:30:00Z,30.2583,-88.2131,4.112,5.93,1111122 
DISL,ioos:station:DISL:KATA:1,2013-07-01T18:00:00Z,30.2583,-88.2131,4.112,5.93,1111122 
DISL,ioos:station:DISL:KATA:1,2013-07-01T18:30:00Z,30.2583,-88.2131,4.112,5.93,1111122 
DISL,ioos:station:DISL:KATA:1,2013-07-01T19:00:00Z,30.2583,-88.2131,4.112,5.93,1111122 
DISL,ioos:station:DISL:KATA:1,2013-07-01T19:30:00Z,30.2583,-88.2131,3.975,5.85,1111122 
DISL,ioos:station:DISL:KATA:1,2013-07-01T20:00:00Z,30.2583,-88.2131,3.965,6.0,1111122 
DISL,ioos:station:DISL:KATA:1,2013-07-01T20:30:00Z,30.2583,-88.2131,3.955,5.94,1111122 
DISL,ioos:station:DISL:KATA:1,2013-07-01T21:00:00Z,30.2583,-88.2131,3.954,5.94,1111122 
DISL,ioos:station:DISL:KATA:1,2013-07-01T21:30:00Z,30.2583,-88.2131,3.941,5.48,1111122 
DISL,ioos:station:DISL:KATA:1,2013-07-01T22:00:00Z,30.2583,-88.2131,3.936,5.29,1111122 
DISL,ioos:station:DISL:KATA:1,2013-07-01T22:30:00Z,30.2583,-88.2131,3.932,5.5,1111122 
DISL,ioos:station:DISL:KATA:1,2013-07-01T23:00:00Z,30.2583,-88.2131,3.923,5.02,1111122 
DISL,ioos:station:DISL:KATA:1,2013-07-01T23:30:00Z,30.2583,-88.2131,3.932,5.04,1111122 
DISL,ioos:station:DISL:KATA:1,2013-07-02T00:00:00Z,30.2583,-88.2131,3.945,5.2,1111122 
DISL,ioos:station:DISL:KATA:1,2013-07-02T00:30:00Z,30.2583,-88.2131,3.951,5.04,1111122 
DISL,ioos:station:DISL:KATA:1,2013-07-02T01:00:00Z,30.2583,-88.2131,3.962,4.97,1111122 
DISL,ioos:station:DISL:KATA:1,2013-07-02T01:30:00Z,30.2583,-88.2131,3.968,5.04,1111122 
DISL,ioos:station:DISL:KATA:1,2013-07-02T02:00:00Z,30.2583,-88.2131,3.966,4.87,1111122 
DISL,ioos:station:DISL:KATA:1,2013-07-02T02:30:00Z,30.2583,-88.2131,3.968,4.87,1111122 
DISL,ioos:station:DISL:KATA:1,2013-07-02T03:00:00Z,30.2583,-88.2131,3.981,5.42,1111122 
DISL,ioos:station:DISL:KATA:1,2013-07-02T03:30:00Z,30.2583,-88.2131,4.003,5.62,1111122 
DISL,ioos:station:DISL:KATA:1,2013-07-02T04:00:00Z,30.2583,-88.2131,4.024,5.42,1111122 
DISL,ioos:station:DISL:KATA:1,2013-07-02T04:30:00Z,30.2583,-88.2131,4.054,5.18,1111122 
DISL,ioos:station:DISL:KATA:1,2013-07-02T05:00:00Z,30.2583,-88.2131,4.074,5.25,1111122 
DISL,ioos:station:DISL:KATA:1,2013-07-02T05:30:00Z,30.2583,-88.2131,4.087,5.31,1111122 
DISL,ioos:station:DISL:KATA:1,2013-07-02T06:00:00Z,30.2583,-88.2131,4.096,5.16,1111122 
DISL,ioos:station:DISL:KATA:1,2013-07-02T06:30:00Z,30.2583,-88.2131,4.107,5.24,1111122 
DISL,ioos:station:DISL:KATA:1,2013-07-02T07:00:00Z,30.2583,-88.2131,4.129,5.54,1111122 
DISL,ioos:station:DISL:KATA:1,2013-07-02T07:30:00Z,30.2583,-88.2131,4.155,5.75,1111122 
DISL,ioos:station:DISL:KATA:1,2013-07-02T08:00:00Z,30.2583,-88.2131,4.179,5.6,1111122 
DISL,ioos:station:DISL:KATA:1,2013-07-02T08:30:00Z,30.2583,-88.2131,4.197,6.22,1111122 
DISL,ioos:station:DISL:KATA:1,2013-07-02T09:00:00Z,30.2583,-88.2131,4.218,6.22,1111122 
DISL,ioos:station:DISL:KATA:1,2013-07-02T09:30:00Z,30.2583,-88.2131,4.235,6.1,1111122 
DISL,ioos:station:DISL:KATA:1,2013-07-02T10:00:00Z,30.2583,-88.2131,4.252,6.01,1111122 
DISL,ioos:station:DISL:KATA:1,2013-07-02T10:30:00Z,30.2583,-88.2131,4.253,6.01,1111122 
DISL,ioos:station:DISL:KATA:1,2013-07-02T11:00:00Z,30.2583,-88.2131,4.243,5.7,1111122 
DISL,ioos:station:DISL:KATA:1,2013-07-02T11:30:00Z,30.2583,-88.2131,4.232,5.41,1111122 
DISL,ioos:station:DISL:KATA:1,2013-07-02T12:00:00Z,30.2583,-88.2131,4.224,5.45,1111122 
DISL,ioos:station:DISL:KATA:1,2013-07-02T12:30:00Z,30.2583,-88.2131,4.228,5.45,1111122 
DISL,ioos:station:DISL:KATA:1,2013-07-02T13:00:00Z,30.2583,-88.2131,4.229,5.43,1111122 
DISL,ioos:station:DISL:KATA:1,2013-07-02T13:30:00Z,30.2583,-88.2131,4.202,5.29,1111122 
DISL,ioos:station:DISL:KATA:1,2013-07-02T14:00:00Z,30.2583,-88.2131,4.185,5.28,1111122 
DISL,ioos:station:DISL:KATA:1,2013-07-02T14:30:00Z,30.2583,-88.2131,4.175,5.46,1111122 
DISL,ioos:station:DISL:KATA:1,2013-07-02T15:00:00Z,30.2583,-88.2131,4.162,5.31,1111122 
DISL,ioos:station:DISL:KATA:1,2013-07-02T15:30:00Z,30.2583,-88.2131,4.126,5.33,1111122 
DISL,ioos:station:DISL:KATA:1,2013-07-02T16:00:00Z,30.2583,-88.2131,4.091,5.89,1111122 
DISL,ioos:station:DISL:KATA:1,2013-07-02T16:30:00Z,30.2583,-88.2131,4.061,6.08,1111122 
DISL,ioos:station:DISL:KATA:1,2013-07-02T17:00:00Z,30.2583,-88.2131,4.024,5.7,1111122 
DISL,ioos:station:DISL:KATA:1,2013-07-02T17:30:00Z,30.2583,-88.2131,3.988,5.57,1111122 
DISL,ioos:station:DISL:KATA:1,2013-07-02T18:00:00Z,30.2583,-88.2131,3.95,5.71,1111122 
DISL,ioos:station:DISL:KATA:1,2013-07-02T18:30:00Z,30.2583,-88.2131,3.914,5.75,1111122 
DISL,ioos:station:DISL:KATA:1,2013-07-02T19:00:00Z,30.2583,-88.2131,3.89,5.63,1111122 
DISL,ioos:station:DISL:KATA:1,2013-07-02T19:30:00Z,30.2583,-88.2131,3.878,5.0,1111122 
DISL,ioos:station:DISL:KATA:1,2013-07-02T20:00:00Z,30.2583,-88.2131,3.864,4.96,1111122 
DISL,ioos:station:DISL:KATA:1,2013-07-02T20:30:00Z,30.2583,-88.2131,3.859,5.05,1111122 
DISL,ioos:station:DISL:KATA:1,2013-07-02T21:00:00Z,30.2583,-88.2131,3.859,5.04,1111122 
DISL,ioos:station:DISL:KATA:1,2013-07-02T21:30:00Z,30.2583,-88.2131,3.856,5.3,1111122 
DISL,ioos:station:DISL:KATA:1,2013-07-02T22:00:00Z,30.2583,-88.2131,3.864,5.38,1111122 
DISL,ioos:station:DISL:KATA:1,2013-07-02T22:30:00Z,30.2583,-88.2131,3.86,5.16,1111122 
DISL,ioos:station:DISL:KATA:1,2013-07-02T23:00:00Z,30.2583,-88.2131,3.861,4.88,1111122 
DISL,ioos:station:DISL:KATA:1,2013-07-02T23:30:00Z,30.2583,-88.2131,3.852,4.72,1111122 
DISL,ioos:station:DISL:KATA:1,2013-07-03T00:00:00Z,30.2583,-88.2131,3.853,4.76,1111122 
DISL,ioos:station:DISL:KATA:1,2013-07-03T00:30:00Z,30.2583,-88.2131,3.865,5.08,1111122 
DISL,ioos:station:DISL:KATA:1,2013-07-03T01:00:00Z,30.2583,-88.2131,3.872,5.35,1111122 
DISL,ioos:station:DISL:KATA:1,2013-07-03T01:30:00Z,30.2583,-88.2131,3.905,5.35,1111122 
DISL,ioos:station:DISL:KATA:1,2013-07-03T02:00:00Z,30.2583,-88.2131,3.924,5.43,1111122 
DISL,ioos:station:DISL:KATA:1,2013-07-03T02:30:00Z,30.2583,-88.2131,3.931,5.57,1111122 
DISL,ioos:station:DISL:KATA:1,2013-07-03T03:00:00Z,30.2583,-88.2131,3.956,5.55,1111122 
DISL,ioos:station:DISL:KATA:1,2013-07-03T03:30:00Z,30.2583,-88.2131,3.982,5.43,1111122 
DISL,ioos:station:DISL:KATA:1,2013-07-03T04:00:00Z,30.2583,-88.2131,4.003,5.54,1111122 
DISL,ioos:station:DISL:KATA:1,2013-07-03T04:30:00Z,30.2583,-88.2131,4.027,5.79,1111122 
DISL,ioos:station:DISL:KATA:1,2013-07-03T05:00:00Z,30.2583,-88.2131,4.057,6.2,1111122 
DISL,ioos:station:DISL:KATA:1,2013-07-03T05:30:00Z,30.2583,-88.2131,4.068,6.37,1111122 
DISL,ioos:station:DISL:KATA:1,2013-07-03T06:00:00Z,30.2583,-88.2131,4.095,6.6,1111122 
DISL,ioos:station:DISL:KATA:1,2013-07-03T06:30:00Z,30.2583,-88.2131,4.106,6.42,1111122 
DISL,ioos:station:DISL:KATA:1,2013-07-03T07:00:00Z,30.2583,-88.2131,4.116,6.25,1111122 
DISL,ioos:station:DISL:KATA:1,2013-07-03T07:30:00Z,30.2583,-88.2131,4.148,5.96,1111122 
DISL,ioos:station:DISL:KATA:1,2013-07-03T08:00:00Z,30.2583,-88.2131,4.18,5.58,1111122 
DISL,ioos:station:DISL:KATA:1,2013-07-03T08:30:00Z,30.2583,-88.2131,4.233,4.49,1111122 
DISL,ioos:station:DISL:KATA:1,2013-07-03T09:00:00Z,30.2583,-88.2131,4.23,3.94,1111122 
DISL,ioos:station:DISL:KATA:1,2013-07-03T09:30:00Z,30.2583,-88.2131,4.241,3.15,1111122 
DISL,ioos:station:DISL:KATA:1,2013-07-03T10:00:00Z,30.2583,-88.2131,4.244,2.83,1111122 
DISL,ioos:station:DISL:KATA:1,2013-07-03T10:30:00Z,30.2583,-88.2131,4.265,2.6,1111122 
DISL,ioos:station:DISL:KATA:1,2013-07-03T11:00:00Z,30.2583,-88.2131,4.294,2.29,1111122 
DISL,ioos:station:DISL:KATA:1,2013-07-03T11:30:00Z,30.2583,-88.2131,4.315,2.1,1111122 
DISL,ioos:station:DISL:KATA:1,2013-07-03T12:00:00Z,30.2583,-88.2131,4.326,2.14,1111122 
DISL,ioos:station:DISL:KATA:1,2013-07-03T12:30:00Z,30.2583,-88.2131,4.319,2.07,1111122 
DISL,ioos:station:DISL:KATA:1,2013-07-03T13:00:00Z,30.2583,-88.2131,4.309,2.22,1111122 
DISL,ioos:station:DISL:KATA:1,2013-07-03T13:30:00Z,30.2583,-88.2131,4.293,2.25,1111122 
DISL,ioos:station:DISL:KATA:1,2013-07-03T14:00:00Z,30.2583,-88.2131,4.282,1.82,1111122 
DISL,ioos:station:DISL:KATA:1,2013-07-03T14:30:00Z,30.2583,-88.2131,4.255,1.63,1111122 
DISL,ioos:station:DISL:KATA:1,2013-07-03T15:00:00Z,30.2583,-88.2131,4.204,1.59,1111122 
DISL,ioos:station:DISL:KATA:1,2013-07-03T15:30:00Z,30.2583,-88.2131,4.185,1.57,1111122 
DISL,ioos:station:DISL:KATA:1,2013-07-03T16:00:00Z,30.2583,-88.2131,4.163,1.51,1111122 
DISL,ioos:station:DISL:KATA:1,2013-07-03T16:30:00Z,30.2583,-88.2131,4.129,1.52,1111122 
DISL,ioos:station:DISL:KATA:1,2013-07-03T17:00:00Z,30.2583,-88.2131,4.09,1.35,1111122 
DISL,ioos:station:DISL:KATA:1,2013-07-03T17:30:00Z,30.2583,-88.2131,4.043,1.31,1111122 
DISL,ioos:station:DISL:KATA:1,2013-07-03T18:00:00Z,30.2583,-88.2131,4.002,1.43,1111122 
DISL,ioos:station:DISL:KATA:1,2013-07-03T18:30:00Z,30.2583,-88.2131,3.981,1.5,1111122 
DISL,ioos:station:DISL:KATA:1,2013-07-03T19:00:00Z,30.2583,-88.2131,3.951,1.45,1111122 
DISL,ioos:station:DISL:KATA:1,2013-07-03T19:30:00Z,30.2583,-88.2131,3.943,1.51,1111122 
DISL,ioos:station:DISL:KATA:1,2013-07-03T20:00:00Z,30.2583,-88.2131,3.911,1.75,1111122 
DISL,ioos:station:DISL:KATA:1,2013-07-03T20:30:00Z,30.2583,-88.2131,3.897,2.04,1111122 
DISL,ioos:station:DISL:KATA:1,2013-07-03T21:00:00Z,30.2583,-88.2131,3.887,1.99,1111122 
DISL,ioos:station:DISL:KATA:1,2013-07-03T21:30:00Z,30.2583,-88.2131,3.88,2.12,1111122 
DISL,ioos:station:DISL:KATA:1,2013-07-03T22:00:00Z,30.2583,-88.2131,3.885,2.13,1111122 
DISL,ioos:station:DISL:KATA:1,2013-07-03T22:30:00Z,30.2583,-88.2131,3.879,2.41,1111122 
DISL,ioos:station:DISL:KATA:1,2013-07-03T23:00:00Z,30.2583,-88.2131,3.889,2.59,1111122 
DISL,ioos:station:DISL:KATA:1,2013-07-03T23:30:00Z,30.2583,-88.2131,3.903,2.63,1111122 
DISL,ioos:station:DISL:KATA:1,2013-07-04T00:00:00Z,30.2583,-88.2131,3.91,2.49,1111122 
DISL,ioos:station:DISL:KATA:1,2013-07-04T00:30:00Z,30.2583,-88.2131,3.912,2.42,1111122 
DISL,ioos:station:DISL:KATA:1,2013-07-04T01:00:00Z,30.2583,-88.2131,3.926,2.2,1111122 
DISL,ioos:station:DISL:KATA:1,2013-07-04T01:30:00Z,30.2583,-88.2131,3.932,2.18,1111122 
DISL,ioos:station:DISL:KATA:1,2013-07-04T02:00:00Z,30.2583,-88.2131,3.948,2.17,1111122 
DISL,ioos:station:DISL:KATA:1,2013-07-04T02:30:00Z,30.2583,-88.2131,3.968,2.2,1111122 
DISL,ioos:station:DISL:KATA:1,2013-07-04T03:00:00Z,30.2583,-88.2131,3.995,2.34,1111122 
DISL,ioos:station:DISL:KATA:1,2013-07-04T03:30:00Z,30.2583,-88.2131,4.011,2.41,1111122 
DISL,ioos:station:DISL:KATA:1,2013-07-04T04:00:00Z,30.2583,-88.2131,4.045,2.55,1111122 
DISL,ioos:station:DISL:KATA:1,2013-07-04T04:30:00Z,30.2583,-88.2131,4.08,2.65,1111122 
DISL,ioos:station:DISL:KATA:1,2013-07-04T05:00:00Z,30.2583,-88.2131,4.09,2.78,1111122 
DISL,ioos:station:DISL:KATA:1,2013-07-04T05:30:00Z,30.2583,-88.2131,4.102,2.94,1111122 
DISL,ioos:station:DISL:KATA:1,2013-07-04T06:00:00Z,30.2583,-88.2131,4.117,3.08,1111122 
DISL,ioos:station:DISL:KATA:1,2013-07-04T06:30:00Z,30.2583,-88.2131,4.122,3.18,1111122 
DISL,ioos:station:DISL:KATA:1,2013-07-04T07:00:00Z,30.2583,-88.2131,4.119,3.18,1111122 
DISL,ioos:station:DISL:KATA:1,2013-07-04T07:30:00Z,30.2583,-88.2131,4.15,3.32,1111122 
DISL,ioos:station:DISL:KATA:1,2013-07-04T08:00:00Z,30.2583,-88.2131,4.192,3.33,1111122 
DISL,ioos:station:DISL:KATA:1,2013-07-04T08:30:00Z,30.2583,-88.2131,4.222,3.27,1111122 
DISL,ioos:station:DISL:KATA:1,2013-07-04T09:00:00Z,30.2583,-88.2131,4.262,3.22,1111122 
DISL,ioos:station:DISL:KATA:1,2013-07-04T09:30:00Z,30.2583,-88.2131,4.279,3.15,1111122 
DISL,ioos:station:DISL:KATA:1,2013-07-04T10:00:00Z,30.2583,-88.2131,4.296,3.12,1111122 
DISL,ioos:station:DISL:KATA:1,2013-07-04T10:30:00Z,30.2583,-88.2131,4.331,3.06,1111122 
DISL,ioos:station:DISL:KATA:1,2013-07-04T11:00:00Z,30.2583,-88.2131,4.367,3.11,1111122 
DISL,ioos:station:DISL:KATA:1,2013-07-04T11:30:00Z,30.2583,-88.2131,4.399,3.0,1111122 
DISL,ioos:station:DISL:KATA:1,2013-07-04T12:00:00Z,30.2583,-88.2131,4.4,2.98,1111122 
DISL,ioos:station:DISL:KATA:1,2013-07-04T12:30:00Z,30.2583,-88.2131,4.404,2.98,1111122 
DISL,ioos:station:DISL:KATA:1,2013-07-04T13:00:00Z,30.2583,-88.2131,4.391,3.09,1111122 
DISL,ioos:station:DISL:KATA:1,2013-07-04T13:30:00Z,30.2583,-88.2131,4.381,3.17,1111122 
DISL,ioos:station:DISL:KATA:1,2013-07-04T14:00:00Z,30.2583,-88.2131,4.368,3.15,1111122 
DISL,ioos:station:DISL:KATA:1,2013-07-04T14:30:00Z,30.2583,-88.2131,4.362,3.22,1111122 
DISL,ioos:station:DISL:KATA:1,2013-07-04T15:00:00Z,30.2583,-88.2131,4.347,3.19,1111122 
DISL,ioos:station:DISL:KATA:1,2013-07-04T15:30:00Z,30.2583,-88.2131,4.327,3.14,1111122 
DISL,ioos:station:DISL:KATA:1,2013-07-04T16:00:00Z,30.2583,-88.2131,4.31,2.85,1111122 
DISL,ioos:station:DISL:KATA:1,2013-07-04T16:30:00Z,30.2583,-88.2131,4.281,2.75,1111122 
DISL,ioos:station:DISL:KATA:1,2013-07-04T17:00:00Z,30.2583,-88.2131,4.248,2.79,1111122 
DISL,ioos:station:DISL:KATA:1,2013-07-04T17:30:00Z,30.2583,-88.2131,4.203,2.63,1111122 
DISL,ioos:station:DISL:KATA:1,2013-07-04T18:00:00Z,30.2583,-88.2131,4.161,2.71,1111122 
DISL,ioos:station:DISL:KATA:1,2013-07-04T18:30:00Z,30.2583,-88.2131,4.126,2.68,1111122 
DISL,ioos:station:DISL:KATA:1,2013-07-04T19:00:00Z,30.2583,-88.2131,4.087,2.69,1111122 
DISL,ioos:station:DISL:KATA:1,2013-07-04T19:30:00Z,30.2583,-88.2131,4.05,2.82,1111122 
DISL,ioos:station:DISL:KATA:1,2013-07-04T20:00:00Z,30.2583,-88.2131,4.025,2.86,1111122 
DISL,ioos:station:DISL:KATA:1,2013-07-04T20:30:00Z,30.2583,-88.2131,3.985,2.82,1111122 
DISL,ioos:station:DISL:KATA:1,2013-07-04T21:00:00Z,30.2583,-88.2131,3.96,3.02,1111122 
DISL,ioos:station:DISL:KATA:1,2013-07-04T21:30:00Z,30.2583,-88.2131,3.939,2.95,1111122 
DISL,ioos:station:DISL:KATA:1,2013-07-04T22:00:00Z,30.2583,-88.2131,3.912,3.1,1111122 
DISL,ioos:station:DISL:KATA:1,2013-07-04T22:30:00Z,30.2583,-88.2131,3.903,3.27,1111122 
DISL,ioos:station:DISL:KATA:1,2013-07-04T23:00:00Z,30.2583,-88.2131,3.908,3.28,1111122 
DISL,ioos:station:DISL:KATA:1,2013-07-04T23:30:00Z,30.2583,-88.2131,3.934,3.33,1111122 
DISL,ioos:station:DISL:KATA:1,2013-07-05T00:00:00Z,30.2583,-88.2131,3.953,3.24,1111122 
DISL,ioos:station:DISL:KATA:1,2013-07-05T00:30:00Z,30.2583,-88.2131,3.98,3.16,1111122 
DISL,ioos:station:DISL:KATA:1,2013-07-05T01:00:00Z,30.2583,-88.2131,3.996,3.0,1111122 
DISL,ioos:station:DISL:KATA:1,2013-07-05T01:30:00Z,30.2583,-88.2131,4.018,3.41,1111122 
DISL,ioos:station:DISL:KATA:1,2013-07-05T02:00:00Z,30.2583,-88.2131,4.035,3.65,1111122 
DISL,ioos:station:DISL:KATA:1,2013-07-05T02:30:00Z,30.2583,-88.2131,4.063,3.73,1111122 
DISL,ioos:station:DISL:KATA:1,2013-07-05T03:00:00Z,30.2583,-88.2131,4.099,4.27,1111122 
DISL,ioos:station:DISL:KATA:1,2013-07-05T03:30:00Z,30.2583,-88.2131,4.132,4.87,1111122 
DISL,ioos:station:DISL:KATA:1,2013-07-05T04:00:00Z,30.2583,-88.2131,4.153,4.57,1111122 
DISL,ioos:station:DISL:KATA:1,2013-07-05T04:30:00Z,30.2583,-88.2131,4.166,4.78,1111122 
DISL,ioos:station:DISL:KATA:1,2013-07-05T05:00:00Z,30.2583,-88.2131,4.176,5.16,1111122 
DISL,ioos:station:DISL:KATA:1,2013-07-05T05:30:00Z,30.2583,-88.2131,4.212,5.09,1111122 
DISL,ioos:station:DISL:KATA:1,2013-07-05T06:00:00Z,30.2583,-88.2131,4.22,5.06,1111122 
DISL,ioos:station:DISL:KATA:1,2013-07-05T06:30:00Z,30.2583,-88.2131,4.246,5.03,1111122 
DISL,ioos:station:DISL:KATA:1,2013-07-05T07:00:00Z,30.2583,-88.2131,4.285,4.83,1111122 
DISL,ioos:station:DISL:KATA:1,2013-07-05T07:30:00Z,30.2583,-88.2131,4.294,4.78,1111122 
DISL,ioos:station:DISL:KATA:1,2013-07-05T08:00:00Z,30.2583,-88.2131,4.298,4.14,1111122 
DISL,ioos:station:DISL:KATA:1,2013-07-05T08:30:00Z,30.2583,-88.2131,4.323,4.01,1111122 
DISL,ioos:station:DISL:KATA:1,2013-07-05T09:00:00Z,30.2583,-88.2131,4.312,3.9,1111122 
DISL,ioos:station:DISL:KATA:1,2013-07-05T09:30:00Z,30.2583,-88.2131,4.303,4.11,1111122 
DISL,ioos:station:DISL:KATA:1,2013-07-05T10:00:00Z,30.2583,-88.2131,4.309,4.13,1111122 
DISL,ioos:station:DISL:KATA:1,2013-07-05T10:30:00Z,30.2583,-88.2131,4.299,4.12,1111122 
DISL,ioos:station:DISL:KATA:1,2013-07-05T11:00:00Z,30.2583,-88.2131,4.314,4.24,1111122 
DISL,ioos:station:DISL:KATA:1,2013-07-05T11:30:00Z,30.2583,-88.2131,4.331,4.19,1111122 
DISL,ioos:station:DISL:KATA:1,2013-07-05T12:00:00Z,30.2583,-88.2131,4.333,4.16,1111122 
DISL,ioos:station:DISL:KATA:1,2013-07-05T12:30:00Z,30.2583,-88.2131,4.361,4.02,1111122 
DISL,ioos:station:DISL:KATA:1,2013-07-05T13:00:00Z,30.2583,-88.2131,4.38,3.57,1111122 
DISL,ioos:station:DISL:KATA:1,2013-07-05T13:30:00Z,30.2583,-88.2131,4.414,3.61,1111122 
DISL,ioos:station:DISL:KATA:1,2013-07-05T14:00:00Z,30.2583,-88.2131,4.392,3.65,1111122 
DISL,ioos:station:DISL:KATA:1,2013-07-05T14:30:00Z,30.2583,-88.2131,4.335,3.96,1111122 
DISL,ioos:station:DISL:KATA:1,2013-07-05T15:00:00Z,30.2583,-88.2131,4.31,3.87,1111122 
DISL,ioos:station:DISL:KATA:1,2013-07-05T15:30:00Z,30.2583,-88.2131,4.323,3.87,1111122 
DISL,ioos:station:DISL:KATA:1,2013-07-05T16:00:00Z,30.2583,-88.2131,4.313,3.73,1111122 
DISL,ioos:station:DISL:KATA:1,2013-07-05T16:30:00Z,30.2583,-88.2131,4.257,3.67,1111122 
DISL,ioos:station:DISL:KATA:1,2013-07-05T17:00:00Z,30.2583,-88.2131,4.26,3.73,1111122 
DISL,ioos:station:DISL:KATA:1,2013-07-05T17:30:00Z,30.2583,-88.2131,4.24,3.66,1111122 
DISL,ioos:station:DISL:KATA:1,2013-07-05T18:00:00Z,30.2583,-88.2131,4.192,3.62,1111122 
DISL,ioos:station:DISL:KATA:1,2013-07-05T18:30:00Z,30.2583,-88.2131,4.158,3.56,1111122 
DISL,ioos:station:DISL:KATA:1,2013-07-05T19:00:00Z,30.2583,-88.2131,4.134,3.5,1111122 
DISL,ioos:station:DISL:KATA:1,2013-07-05T19:30:00Z,30.2583,-88.2131,4.096,3.52,1111122 
DISL,ioos:station:DISL:KATA:1,2013-07-05T20:00:00Z,30.2583,-88.2131,4.006,3.47,1111122 
DISL,ioos:station:DISL:KATA:1,2013-07-05T20:30:00Z,30.2583,-88.2131,3.965,3.56,1111122 
DISL,ioos:station:DISL:KATA:1,2013-07-05T21:00:00Z,30.2583,-88.2131,3.892,3.76,1111122 
DISL,ioos:station:DISL:KATA:1,2013-07-05T21:30:00Z,30.2583,-88.2131,3.858,3.89,1111122 
DISL,ioos:station:DISL:KATA:1,2013-07-05T22:00:00Z,30.2583,-88.2131,3.824,3.97,1111122 
DISL,ioos:station:DISL:KATA:1,2013-07-05T22:30:00Z,30.2583,-88.2131,3.79,3.95,1111122 
DISL,ioos:station:DISL:KATA:1,2013-07-05T23:00:00Z,30.2583,-88.2131,3.737,3.9,1111122 
DISL,ioos:station:DISL:KATA:1,2013-07-05T23:30:00Z,30.2583,-88.2131,3.719,3.92,1111122 
DISL,ioos:station:DISL:KATA:1,2013-07-06T00:00:00Z,30.2583,-88.2131,3.719,3.92,1111122 
DISL,ioos:station:DISL:KATA:1,2013-07-06T00:30:00Z,30.2583,-88.2131,3.731,3.79,1111122 
DISL,ioos:station:DISL:KATA:1,2013-07-06T01:00:00Z,30.2583,-88.2131,3.742,3.93,1111122 
DISL,ioos:station:DISL:KATA:1,2013-07-06T01:30:00Z,30.2583,-88.2131,3.825,3.85,1111122 
DISL,ioos:station:DISL:KATA:1,2013-07-06T02:00:00Z,30.2583,-88.2131,3.882,4.18,1111122 
DISL,ioos:station:DISL:KATA:1,2013-07-06T02:30:00Z,30.2583,-88.2131,3.936,3.92,1111122 
DISL,ioos:station:DISL:KATA:1,2013-07-06T03:00:00Z,30.2583,-88.2131,3.968,4.64,1111122 
DISL,ioos:station:DISL:KATA:1,2013-07-06T03:30:00Z,30.2583,-88.2131,3.953,4.64,1111122 
DISL,ioos:station:DISL:KATA:1,2013-07-06T04:00:00Z,30.2583,-88.2131,3.951,4.64,1111122 
DISL,ioos:station:DISL:KATA:1,2013-07-06T04:30:00Z,30.2583,-88.2131,3.975,4.86,1111122 
DISL,ioos:station:DISL:KATA:1,2013-07-06T05:00:00Z,30.2583,-88.2131,4.047,4.9,1111122 
DISL,ioos:station:DISL:KATA:1,2013-07-06T05:30:00Z,30.2583,-88.2131,4.131,5.03,1111122 
DISL,ioos:station:DISL:KATA:1,2013-07-06T06:00:00Z,30.2583,-88.2131,4.195,5.09,1111122 
DISL,ioos:station:DISL:KATA:1,2013-07-06T06:30:00Z,30.2583,-88.2131,4.194,5.09,1111122 
DISL,ioos:station:DISL:KATA:1,2013-07-06T07:00:00Z,30.2583,-88.2131,4.184,5.02,1111122 
DISL,ioos:station:DISL:KATA:1,2013-07-06T07:30:00Z,30.2583,-88.2131,4.193,5.02,1111122 
DISL,ioos:station:DISL:KATA:1,2013-07-06T08:00:00Z,30.2583,-88.2131,4.187,5.09,1111122 
DISL,ioos:station:DISL:KATA:1,2013-07-06T08:30:00Z,30.2583,-88.2131,4.161,5.07,1111122 
DISL,ioos:station:DISL:KATA:1,2013-07-06T09:00:00Z,30.2583,-88.2131,4.159,5.14,1111122 
DISL,ioos:station:DISL:KATA:1,2013-07-06T09:30:00Z,30.2583,-88.2131,4.163,5.2,1111122 
DISL,ioos:station:DISL:KATA:1,2013-07-06T10:00:00Z,30.2583,-88.2131,4.193,5.16,1111122 
DISL,ioos:station:DISL:KATA:1,2013-07-06T10:30:00Z,30.2583,-88.2131,4.234,5.24,1111122 
DISL,ioos:station:DISL:KATA:1,2013-07-06T11:00:00Z,30.2583,-88.2131,4.301,5.19,1111122 
DISL,ioos:station:DISL:KATA:1,2013-07-06T11:30:00Z,30.2583,-88.2131,4.368,5.05,1111122 
DISL,ioos:station:DISL:KATA:1,2013-07-06T12:00:00Z,30.2583,-88.2131,4.408,4.87,1111122 
DISL,ioos:station:DISL:KATA:1,2013-07-06T12:30:00Z,30.2583,-88.2131,4.444,4.79,1111122 
DISL,ioos:station:DISL:KATA:1,2013-07-06T13:00:00Z,30.2583,-88.2131,4.429,4.76,1111122 
DISL,ioos:station:DISL:KATA:1,2013-07-06T13:30:00Z,30.2583,-88.2131,4.425,4.65,1111122 
DISL,ioos:station:DISL:KATA:1,2013-07-06T14:00:00Z,30.2583,-88.2131,4.362,4.52,1111122 
DISL,ioos:station:DISL:KATA:1,2013-07-06T14:30:00Z,30.2583,-88.2131,4.32,4.56,1111122 
DISL,ioos:station:DISL:KATA:1,2013-07-06T15:00:00Z,30.2583,-88.2131,4.342,4.5,1111122 
DISL,ioos:station:DISL:KATA:1,2013-07-06T15:30:00Z,30.2583,-88.2131,4.316,4.49,1111122 